Mackinac Island, MI

12:19 PM EDT on March 28, 2017 (GMT -0400)
Mackinac Island

Weather History for KMCD - February, 2013

Change the Weather History Date:

Thursday, February 28, 2013

  Actual Average Record
Temperature  
Mean Temperature 26 °F -  
Max Temperature 32 °F 26 °F 46 °F (2004)
Min Temperature 19 °F 15 °F -16 °F (2014)
Degree Days  
Heating Degree Days 40    
Moisture  
Dew Point 20 °F    
Average Humidity 71    
Maximum Humidity 89    
Minimum Humidity 56    
Precipitation  
Precipitation 0.00 in - - ()
Sea Level Pressure  
Sea Level Pressure 29.88 in    
Wind  
Wind Speed 13 mph (NNE)    
Max Wind Speed 17 mph    
Max Gust Speed 31 mph    
Visibility 10 miles    
Events Snow    
Averages and records for this station are not official NWS values.
T = Trace of Precipitation, MM = Missing Value Source: NWS Daily Summary

Daily Weather History Graph

Daily Weather History Graph

Search for Another Location

Airport or City:

Trip Planner

Search our weather history database for the weather conditions in past years. The results will help you decide how hot, cold, wet, or windy it might be!

Date:

Astronomy

Feb. 28, 2013 Rise Set
Actual Time 7:18 AM EST 6:24 PM EST
Civil Twilight 6:48 AM EST 6:54 PM EST
Nautical Twilight 6:14 AM EST 7:28 PM EST
Astronomical Twilight 5:39 AM EST 8:03 PM EST
Moon 10:04 PM EST 8:15 AM EST
Length of Visible Light 12h 05m
Length of Day
11h 05m
Waning Gibbous, 91% of the Moon is Illuminated
Feb 28
Waning Gibbous
Mar 4
Last Quarter
Mar 11
New
Mar 19
First Quarter
Mar 27
Full

Hourly Weather History & Observations

Time (EST) Temp. Windchill Dew Point Humidity Pressure Visibility Wind Dir Wind Speed Gust Speed Precip Events Conditions
12:14 AM 32.0 °F 23.0 °F 29.1 °F 89% 29.70 in 10.0 mi North 11.5 mph 17.3 mph N/A   Overcast
1:14 AM 32.0 °F 21.6 °F 28.4 °F 87% 29.71 in 10.0 mi NNE 15.0 mph 19.6 mph N/A   Overcast
1:33 AM 32.0 °F 21.6 °F 28.4 °F 87% 29.71 in 10.0 mi NNE 15.0 mph 20.7 mph N/A   Overcast
1:53 AM 32.0 °F 22.5 °F 28.2 °F 86% 29.71 in 10.0 mi NNE 12.7 mph 19.6 mph N/A   Overcast
2:14 AM 32.0 °F 22.1 °F 28.0 °F 85% 29.72 in 10.0 mi NNE 13.8 mph 20.7 mph N/A   Overcast
2:33 AM 32.0 °F 21.6 °F 27.5 °F 83% 29.72 in 10.0 mi NNE 15.0 mph 19.6 mph N/A   Overcast
2:53 AM 32.0 °F 22.5 °F 27.5 °F 83% 29.72 in 10.0 mi NNE 12.7 mph 17.3 mph N/A   Overcast
3:14 AM 32.0 °F 24.2 °F 27.3 °F 83% 29.72 in 10.0 mi North 9.2 mph 21.9 mph N/A   Overcast
3:33 AM 31.8 °F 22.3 °F 27.1 °F 83% 29.72 in 10.0 mi North 12.7 mph 20.7 mph N/A   Overcast
3:53 AM 31.1 °F 20.9 °F 27.3 °F 86% 29.72 in 10.0 mi North 13.8 mph 21.9 mph N/A   Overcast
4:14 AM 31.1 °F 21.4 °F 27.5 °F 87% 29.73 in 10.0 mi North 12.7 mph 18.4 mph N/A   Overcast
4:33 AM 31.1 °F 21.9 °F 27.5 °F 87% 29.73 in 10.0 mi North 11.5 mph 19.6 mph N/A   Overcast
4:53 AM 31.1 °F 21.4 °F 27.1 °F 85% 29.74 in 10.0 mi North 12.7 mph 18.4 mph N/A   Overcast
5:14 AM 31.1 °F 23.1 °F 26.4 °F 83% 29.75 in 10.0 mi North 9.2 mph - N/A   Overcast
5:33 AM 31.3 °F 23.3 °F 25.7 °F 80% 29.75 in 10.0 mi North 9.2 mph 17.3 mph N/A   Overcast
5:53 AM 31.1 °F 21.9 °F 25.5 °F 80% 29.76 in 10.0 mi North 11.5 mph 18.4 mph N/A   Overcast
6:14 AM 30.9 °F 21.7 °F 25.2 °F 79% 29.76 in 10.0 mi North 11.5 mph 20.7 mph N/A   Overcast
6:33 AM 30.7 °F 22.0 °F 25.2 °F 80% 29.77 in 10.0 mi North 10.4 mph 19.6 mph N/A   Overcast
6:53 AM 29.8 °F 19.8 °F 26.1 °F 86% 29.77 in 4.0 mi North 12.7 mph 20.7 mph N/A Snow Light Snow
7:14 AM 29.3 °F 22.3 °F 26.4 °F 89% 29.79 in 4.0 mi North 6.9 mph - N/A Snow Light Snow
7:33 AM 29.3 °F 20.2 °F 26.1 °F 88% 29.80 in 5.0 mi North 10.4 mph 17.3 mph N/A Snow Light Snow
7:53 AM 29.3 °F 19.6 °F 25.7 °F 86% 29.80 in 10.0 mi North 11.5 mph 18.4 mph N/A   Overcast
8:14 AM 29.7 °F 20.7 °F 25.5 °F 85% 29.81 in 10.0 mi North 10.4 mph 16.1 mph N/A   Overcast
8:33 AM 29.3 °F 21.5 °F 25.3 °F 85% 29.82 in 10.0 mi North 8.1 mph - N/A   Overcast
8:53 AM 29.8 °F 19.8 °F 23.9 °F 79% 29.83 in 10.0 mi North 12.7 mph 17.3 mph N/A   Overcast
9:14 AM 29.3 °F 18.6 °F 21.9 °F 74% 29.84 in 10.0 mi NNE 13.8 mph 19.6 mph N/A   Overcast
9:33 AM 29.7 °F 20.1 °F 21.9 °F 73% 29.84 in 10.0 mi NNE 11.5 mph 20.7 mph N/A   Overcast
9:53 AM 29.7 °F 20.1 °F 21.4 °F 71% 29.84 in 10.0 mi North 11.5 mph 24.2 mph N/A   Overcast
10:13 AM 29.8 °F 19.3 °F 21.2 °F 70% 29.85 in 10.0 mi North 13.8 mph 21.9 mph N/A   Overcast
10:33 AM 30.9 °F 20.7 °F 21.0 °F 67% 29.85 in 10.0 mi NNE 13.8 mph 23.0 mph N/A   Overcast
10:54 AM 30.6 °F 20.2 °F 20.8 °F 67% 29.86 in 10.0 mi NNE 13.8 mph 20.7 mph N/A   Overcast
11:13 AM 30.0 °F 19.5 °F 20.1 °F 67% 29.86 in 10.0 mi NNE 13.8 mph 25.3 mph N/A   Overcast
11:33 AM 29.5 °F 18.4 °F 19.6 °F 67% 29.87 in 10.0 mi North 15.0 mph 23.0 mph N/A   Overcast
11:54 AM 29.8 °F 20.3 °F 19.9 °F 67% 29.88 in 10.0 mi NNE 11.5 mph 19.6 mph N/A   Overcast
12:13 PM 29.8 °F 18.4 °F 19.2 °F 65% 29.88 in 10.0 mi North 16.1 mph 23.0 mph N/A   Overcast
12:33 PM 29.8 °F 19.3 °F 19.2 °F 65% 29.88 in 10.0 mi NNE 13.8 mph 20.7 mph N/A   Overcast
12:54 PM 30.0 °F 18.7 °F 18.9 °F 63% 29.89 in 10.0 mi North 16.1 mph 21.9 mph N/A   Overcast
1:13 PM 30.7 °F 20.0 °F 19.0 °F 62% 29.88 in 10.0 mi North 15.0 mph 23.0 mph N/A   Overcast
1:33 PM 30.7 °F 20.0 °F 19.2 °F 62% 29.89 in 10.0 mi North 15.0 mph 20.7 mph N/A   Overcast
1:54 PM 30.9 °F 19.8 °F 19.6 °F 63% 29.89 in 10.0 mi North 16.1 mph 21.9 mph N/A   Overcast
2:13 PM 31.1 °F 21.4 °F 19.0 °F 61% 29.89 in 10.0 mi North 12.7 mph 20.7 mph N/A   Overcast
2:33 PM 31.3 °F 20.7 °F 18.3 °F 59% 29.90 in 10.0 mi NNE 15.0 mph 21.9 mph N/A   Overcast
2:54 PM 31.1 °F 21.4 °F 17.4 °F 57% 29.90 in 10.0 mi NNE 12.7 mph 20.7 mph N/A   Overcast
3:13 PM 31.1 °F 21.4 °F 18.0 °F 58% 29.91 in 10.0 mi North 12.7 mph 23.0 mph N/A   Overcast
3:33 PM 31.1 °F 20.5 °F 17.6 °F 57% 29.92 in 10.0 mi North 15.0 mph - N/A   Overcast
3:54 PM 31.1 °F 20.9 °F 16.9 °F 56% 29.92 in 10.0 mi North 13.8 mph 20.7 mph N/A   Overcast
4:13 PM 30.2 °F 20.8 °F 16.2 °F 56% 29.93 in 10.0 mi North 11.5 mph 24.2 mph N/A   Overcast
4:33 PM 29.7 °F 19.1 °F 15.8 °F 56% 29.94 in 10.0 mi NNE 13.8 mph 19.6 mph N/A   Mostly Cloudy
4:54 PM 29.3 °F 19.6 °F 15.8 °F 57% 29.94 in 10.0 mi North 11.5 mph 19.6 mph N/A   Scattered Clouds
5:13 PM 28.9 °F 19.8 °F 15.4 °F 57% 29.95 in 10.0 mi North 10.4 mph 19.6 mph N/A   Scattered Clouds
5:33 PM 28.9 °F 19.2 °F 15.4 °F 57% 29.95 in 10.0 mi North 11.5 mph 19.6 mph N/A   Clear
5:54 PM 28.4 °F 18.5 °F 15.3 °F 58% 29.97 in 10.0 mi North 11.5 mph 19.6 mph N/A   Clear
6:13 PM 27.7 °F 18.2 °F 14.9 °F 59% 29.97 in 10.0 mi NNE 10.4 mph 18.4 mph N/A   Clear
6:33 PM 27.0 °F 16.1 °F 14.7 °F 60% 29.98 in 10.0 mi NNE 12.7 mph 18.4 mph N/A   Clear
6:54 PM 26.4 °F 16.6 °F 14.9 °F 62% 30.00 in 10.0 mi North 10.4 mph 18.4 mph N/A   Scattered Clouds
7:13 PM 25.7 °F 15.1 °F 14.7 °F 63% 30.00 in 10.0 mi NNE 11.5 mph 17.3 mph N/A   Scattered Clouds
7:33 PM 25.3 °F 13.1 °F 14.2 °F 63% 30.01 in 10.0 mi NNE 15.0 mph 19.6 mph N/A   Scattered Clouds
7:53 PM 25.0 °F 13.1 °F 12.9 °F 60% 30.02 in 10.0 mi NNE 13.8 mph 19.6 mph N/A   Clear
8:13 PM 24.1 °F 13.1 °F 13.8 °F 65% 30.03 in 10.0 mi NNE 11.5 mph 17.3 mph N/A   Clear
8:34 PM 23.9 °F 12.9 °F 12.9 °F 63% 30.03 in 10.0 mi NNE 11.5 mph 18.4 mph N/A   Scattered Clouds
8:53 PM 23.9 °F 13.5 °F 13.1 °F 63% 30.04 in 10.0 mi NNE 10.4 mph 18.4 mph N/A   Mostly Cloudy
9:13 PM 23.7 °F 12.1 °F 13.1 °F 64% 30.04 in 10.0 mi North 12.7 mph 19.6 mph N/A   Overcast
9:34 PM 23.0 °F 10.1 °F 12.7 °F 65% 30.04 in 10.0 mi NNE 15.0 mph 23.0 mph N/A   Overcast
9:53 PM 22.1 °F 9.5 °F 12.4 °F 66% 30.05 in 10.0 mi NNE 13.8 mph 24.2 mph N/A   Mostly Cloudy
10:13 PM 21.2 °F 8.3 °F 12.2 °F 68% 30.05 in 10.0 mi NNE 13.8 mph 24.2 mph N/A   Overcast
10:34 PM 21.0 °F 6.6 °F 12.0 °F 68% 30.06 in 10.0 mi NNE 17.3 mph 31.1 mph N/A   Overcast
11:13 PM 19.9 °F 6.2 °F 10.8 °F 68% 30.08 in 10.0 mi North 15.0 mph 25.3 mph N/A   Mostly Cloudy
11:34 PM 19.4 °F 6.0 °F 10.4 °F 68% 30.08 in 10.0 mi North 13.8 mph 23.0 mph N/A   Mostly Cloudy
11:53 PM 19.0 °F 6.1 °F 10.2 °F 69% 30.08 in 10.0 mi North 12.7 mph 21.9 mph N/A   Scattered Clouds